Regional Weather Roundup
Issued by NWS Grand Forks, ND

Home | Current Version | Previous Version | Graphics & Text | Print | Product List | Glossary On
Versions: 1 2 3 4 5 6 7 8 9 10 11 12 13 14 15 16 17 18 19 20 21 22 23 24 25 26 27 28 29 30 31 32 33 34 35 36 37 38 39 40 41 42 43 44 45 46 47 48 49 50
000
ASUS43 KFGF 301310
RWRFGF
PRAIRIE TO PINES  WEATHER ROUNDUP
NATIONAL WEATHER SERVICE EASTERN NORTH DAKOTA/GRAND FORKS ND
800 AM CDT SAT AUG 30 2014

 **SATELLITE DATA USED TO AUGMENT SKY COVER AT AUTOMATED STATIONS**
 *****  WEATHER ACROSS EASTERN NORTH DAKOTA  *****

CITY           SKY/WX    TMP DP  RH WIND       PRES   REMARKS
GRAND FORKS    SUNNY     50  48  93 N8        29.96R
GRAND FRKS AFB SUNNY     51  50  99 N7        29.97R
GRAND FRKS NWS   N/A     48 N/A N/A N9          N/A
DEVILS LAKE    SUNNY     46  43  87 CALM      29.96S
FARGO          CLOUDY    56  52  86 N10       29.92S
WAHPETON ARPT  CLOUDY    57  52  82 N8        29.92S
$$

 ***** WEATHER ACROSS CENTRAL AND WESTERN NORTH DAKOTA  *****

CITY           SKY/WX    TMP DP  RH WIND       PRES   REMARKS
BISMARCK       FOG       48  48 100 NE6       29.97F VSB<1/4
MINOT          CLEAR     49  47  93 SE6       29.93F
JAMESTOWN      SUNNY     51  49  92 N5        29.96S
MINOT AFB      CLEAR     48  48  99 S5        29.93F
GARRISON         N/A     53  52  96 SE7       29.94F
WILLISTON      CLEAR     57  51  80 SE9       29.87F
DICKINSON      MOCLDY    54  52  93 SE12      29.91F
HETTINGER      FOG       54  52  93 SE13      29.95S VSB 3/4
$$

 *****  OTHER AIRPORT OBSERVATIONS IN OUR AREA  *****

CITY           SKY/WX    TMP DP  RH WIND       PRES   REMARKS
WALHALLA       FAIR      45  45 100 CALM      29.97F
GRAFTON AIRPOR FAIR      48  46  93 N5        29.96F
VALLEY CITY AR FAIR      50  50 100 N6        29.96S
CANDO          FAIR      45  45 100 CALM      29.98S FOG
CAVALIER APRT  FAIR      48  46  93 NW5       29.96F
GWINNER        PTSUNNY   57  55  94 N7        29.95S
ROLLA          FAIR      43  43 100 SW3       29.98S
 ***** THE ABOVE OBSERVATIONS ARE NON NWS ARE NOT QUALITY
       CONTROLLED AND MAY MIS-REPORT RAIN FOR SNOW...
$$

  *****  WEATHER ACROSS NORTHERN MINNESOTA  *****

CITY           SKY/WX    TMP DP  RH WIND       PRES   REMARKS
FLAG ISLAND    PTSUNNY   57  54  88 NE9       29.94S
WARROAD        SUNNY     52  48  87 N6        29.95S
ROSEAU         SUNNY     50  45  81 N6        29.95S
HALLOCK        SUNNY     46  45  93 CALM      29.96S
THF RVR FALLS  MOSUNNY   52  48  87 NE8       29.94S
BAUDETTE       SUNNY     56  53  90 N3        29.94R
WASKISH        CLOUDY    55  54  94 N5        29.94R
CROOKSTON      SUNNY     50  48  93 N6        29.95S
$$
  *****  WEATHER ACROSS CENTRAL AND WEST MINNESOTA  *****

CITY           SKY/WX    TMP DP  RH WIND       PRES   REMARKS
FOSSTON        CLOUDY    55  54  94 N8        29.93S
BEMIDJI        CLOUDY    57  54  88 N10       29.91S
PARK RAPIDS    CLOUDY    58  55  90 NE9       29.90R
ELBOW LAKE     CLOUDY    60  59  96 NW9       29.89S
WADENA         CLOUDY    59  57  94 N8        29.89R
DETROIT LAKES  CLOUDY    59  57  94 N5        29.92R
MOORHEAD       CLOUDY    55  55 100 N7        29.92F
FERGUS FALLS   CLOUDY    61  57  88 NW8       29.90S
MORRIS MN      CLOUDY    61  61 100 NW9       29.89R
STAPLES        CLOUDY    61  59  94 N8        29.88R
$$
  *****  WEATHER ELSEWHERE ACROSS MINNESOTA  *****

CITY           SKY/WX    TMP DP  RH WIND       PRES   REMARKS
DULUTH         CLOUDY    62  58  86 N8        29.85R
INTRNTL FALLS  CLOUDY    59  53  80 NE7       29.93R
ELY            CLOUDY    59  57  94 N3        29.88R
CLOQUET        PTSUNNY   61  59  94 N3        29.85S
WHEATON        CLOUDY    55  54  94 NW6       29.93R
BRAINERD       CLOUDY    62  62 100 N9        29.87R
HIBBING        CLOUDY    61  58  90 N10       29.88R
ALEXANDRIA     CLOUDY    65  62  90 N9        29.89S
SAINT CLOUD    PTSUNNY   68  65  90 NW5       29.84S
MINNEAPOLIS    PTSUNNY   67  65  93 NW6       29.82R
$$

  *****  WEATHER ACROSS SOUTH DAKOTA  *****

CITY           SKY/WX    TMP DP  RH WIND       PRES   REMARKS
SIOUX FALLS    CLOUDY    63  62  97 NW8       29.92R
BROOKINGS      NOT AVBL
WATERTOWN      CLOUDY    59  57  93 N10       29.92S
HURON          CLOUDY    60  57  89 N8        29.94S
SISSETON         N/A     59  56  89 N12       29.91S
ABERDEEN       CLOUDY    56  55  97 N8        29.95S
MITCHELL       CLOUDY    60  58  92 N8        29.94F
PIERRE         CLEAR     52  52 100 E3        29.96S FOG
MOBRIDGE       CLEAR     51  51 100 E3        29.95S
RAPID CITY     FOG       53  53 100 SE6       29.94F VSB 1/4
$$

  *****  SOME WEATHER IN NEARBY STATES *****

CITY           SKY/WX    TMP DP  RH WIND       PRES   REMARKS
GLASGOW MT     LGT RAIN  57  54  89 E17       29.74F
GREAT FALLS MT CLOUDY    63  41  44 SW10      29.80F
CHEYENNE WY    CLEAR     49  46  90 SW6       30.12R
SCOTTSBLUFF NE PTCLDY    56  54  93 E7        30.01S
OMAHA NE       PTSUNNY   65  62  90 NW6       29.93R
DES MOINES IA  CLOUDY    68  65  90 NW9       29.87R
DAVENPORT IA   CLOUDY    69  65  86 W17G23    29.85R
CHICAGO IL     PTSUNNY   74  68  81 SW10      29.85F
EAU CLAIRE WI    N/A     67  66  97 NW3       29.77R
LA CROSSE WI   CLOUDY    70  67  90 SW5       29.76R
$$

  *****  SOME NATIONAL WEATHER *****

CITY           SKY/WX    TMP DP  RH WIND       PRES   REMARKS
LA GUARDIA NY  MOSUNNY   72  56  57 S8        30.26F
RALEIGH NC     CLOUDY    73  68  84 S3        30.23S
ATLANTA GA     PTSUNNY   77  69  76 S7        30.17R
NEW ORLEANS LA PTSUNNY   82  77  84 SE8       30.01R HX  90
OKLAHOMA CITY  SUNNY     70  66  87 CALM      29.97R
ALBUQUERQUE NM PTCLDY    62  43  49 N8        30.18R
SALT LAKE CITY MOCLDY    71  45  39 SE8       29.92R
LOS ANGELES CA PTCLDY    69  63  80 CALM      29.82S
BOISE ID       CLOUDY    65  42  43 W7        29.87R
SEATTLE WA     LGT RAIN  60  56  86 S7        29.92F
$$

*** WEATHER ACROSS MANITOBA...SASKATCHEWAN AND ONTARIO ***
                ***ONTARIO***

CITY           SKY/WX    TMP DP  RH WIND       PRES   REMARKS
GERALDTON      CLOUDY    57  57 100 NE12      29.87R
THUNDER BAY    CLOUDY    59  59 100 CALM      29.84R
SIOUX LOOKOUT  MOSUNNY   57  54  88 VRB2      29.94R
TORONTO        PTSUNNY   70  61  73 S5        30.04F
BIG TROUT LK   SUNNY     52  43  71 NW6       29.96R
PICKLE LAKE    PTSUNNY   54  52  94 NE5       29.96R
DRYDEN         PTSUNNY   55  54  94 NE6       29.95R
KENORA         NOT AVBL
$$
                *** MANITOBA***

CITY           SKY/WX    TMP DP  RH WIND       PRES   REMARKS
BRANDON        PTCLDY    46  45  93 E7        29.96F
DAUPHIN        CLEAR     46  45  93 CALM      29.93F
ISLAND LAKE    PTSUNNY   52  48  87 CALM      29.98S
PILOT MOUND      N/A     43  43 100 S1          N/A
THE PAS        MOCLDY    50  48  93 SE8       29.87F
THOMPSON       PTSUNNY   43  43 100 CALM      29.93S
WINNIPEG       SUNNY     48  46  93 CALM      29.97S
LYNN LAKE      CLEAR     41  39  93 MISG      29.87S
CHURCHILL      SUNNY     46  41  81 W14       29.83R
GILLAM         PTSUNNY   45  43  93 SW7       29.93R
$$
                ***SASKATCHEWAN***

CITY           SKY/WX    TMP DP  RH WIND       PRES   REMARKS
ESTEVAN        PTCLDY    54  52  94 SE9       29.89S
KINDERSLEY     MOCLDY    55  52  88 W9        29.61R
LLOYDMINSTER   MOCLDY    52  50  93 W6        29.61S
PRINCE ALBERT  LGT RAIN  52  50  93 SE8       29.72R
REGINA         MOCLDY    54  50  87 SE16      29.78F
YORKTON        CLEAR     50  46  87 S9        29.85F
N. BATTLEFORD  MOCLDY    52  52 100 E8        29.62R
LA RONGE       MOCLDY    55  46  71 SE10      29.74F
SASKATOON      LGT RAIN  54  52  94 E13       29.64F
SWIFT CURRENT  CLOUDY    59  52  77 S16G22    29.67S
$$
NOTE: THESE ARE AUTOMATED STATIONS WITH LIMITED QUALITY CONTROL
      "FAIR" INDICATES FEW OR NO CLOUDS BELOW 12,000 FEET WITH NO
      SIGNIFICANT WEATHER AND/OR OBSTRUCTIONS TO VISIBILITY.
      SKY/WX - SKY CONDITION AND SIGNIFICANT WEATHER.
      TMP - AIR TEMPERATURE.    DP   - DEWPOINT TEMPERATURE.
      RH  - RELATIVE HUMIDITY.  PRES - PRESSURE.
      HX  - HEAT INDEX.         WCI  - WIND CHILL INDEX.
$



USA.gov is the U.S. government's official web portal to all federal, state and local government web resources and services.